Theta_e
328 329 328 328 328 328 327 326 327 327 327 327 326 326 326 327 325 325 324 319 325 331 333 334 335 334 335 336 335 336 335 334 333 332 332 331 331 332 331 331 331 330 331
329 329 329 329 328 328 327 327 326 326 325 326 326 327 326 326 327 326 327 326 323 328 332 333 334 335 334 334 335 334 334 333 332 331 331 330 329 329 329 330 330 330 329
330 329 328 328 328 329 328 327 327 326 325 326 324 325 324 324 326 327 326 326 326 322 327 332 332 333 334 334 333 332 332 332 331 329 328 328 329 329 328 327 326 325 325
332 330 329 329 330 330 329 328 328 327 326 325 323 323 323 324 324 326 327 326 326 326 324 328 329 330 331 332 332 333 332 331 329 328 328 326 325 324 323 322 321 321 321
333 331 330 330 331 330 329 328 325 325 325 325 325 324 322 322 322 324 323 325 324 324 323 323 322 323 327 329 332 332 331 327 325 325 322 320 320 320 320 319 319 318 317
333 332 331 330 330 328 327 326 324 324 324 324 325 324 322 322 323 322 322 322 321 322 322 318 317 317 324 331 332 331 329 326 324 321 318 318 318 317 317 316 316 315 314
326 324 324 324 322 321 321 322 322 321 319 324 323 322 321 322 322 322 322 322 320 319 317 313 312 313 316 323 326 328 325 323 321 317 317 316 316 315 314 314 313 313 313
320 320 320 320 320 319 318 318 318 319 321 323 320 317 315 315 316 309 309 310 307 308 307 310 310 310 309 310 315 320 320 321 318 317 315 314 313 313 313 313 312 312 312
320 320 321 320 319 319 317 318 321 320 318 321 323 320 313 308 311 308 301 300 302 303 301 301 303 304 306 307 307 309 314 316 315 314 313 313 312 312 312 311 311 310 310
316 317 317 317 316 317 317 317 322 323 323 320 320 323 319 316 311 309 302 297 296 295 296 297 297 299 301 300 302 303 306 310 311 311 311 311 311 311 310 310 309 309 309
315 314 314 313 312 313 314 315 319 319 321 321 320 320 319 319 318 314 310 298 295 294 294 295 295 296 298 300 299 300 302 304 304 306 307 308 309 309 309 308 307 308 308
312 313 312 309 309 308 309 314 316 316 316 317 317 317 317 315 314 313 310 300 298 292 291 293 293 293 294 294 297 298 301 300 301 302 303 305 305 306 307 306 306 306 306
310 310 309 307 306 307 309 310 311 310 311 309 310 312 315 314 314 312 312 301 296 290 289 291 292 293 293 293 292 294 298 298 298 299 301 302 302 303 303 303 304 304 301
306 307 305 304 304 305 304 303 303 305 306 305 304 308 309 308 307 307 307 302 295 290 287 287 290 291 292 291 290 292 294 298 296 298 300 299 299 300 299 301 301 300 299
302 301 300 300 300 301 301 300 299 299 301 301 302 302 304 304 302 299 302 303 303 293 290 287 286 289 290 289 290 290 291 294 295 296 298 297 296 297 297 299 299 297 297
298 298 298 298 298 298 298 297 296 297 297 297 299 298 298 298 298 296 296 297 300 299 297 289 286 287 288 288 289 288 289 291 292 294 295 294 294 294 295 297 295 295 295
295 295 295 295 295 295 295 294 294 294 294 294 295 295 295 295 294 293 292 294 297 297 293 287 287 287 286 285 285 286 287 283 286 291 293 292 291 291 293 294 292 292 291
293 293 293 293 293 293 293 292 291 292 291 291 291 292 292 294 291 291 289 289 294 294 291 285 284 284 283 284 283 282 285 283 282 288 291 289 289 289 291 290 289 288 288
291 291 291 290 290 291 291 291 291 290 290 290 290 290 290 290 288 286 286 285 285 289 289 287 283 282 283 282 281 281 282 281 281 286 290 287 287 287 290 287 287 286 285
289 289 289 289 289 289 290 289 290 289 288 289 289 288 288 287 285 285 284 283 283 283 283 283 281 282 281 281 281 278 277 278 277 280 283 282 284 285 288 285 284 283 283
287 288 288 287 287 288 289 287 287 286 285 286 286 286 286 285 284 284 282 282 281 281 282 281 279 278 278 278 277 278 277 277 276 277 277 278 278 278 282 282 282 282 282
285 285 284 284 284 287 290 291 290 284 284 284 284 284 283 281 282 284 284 284 284 282 282 281 280 279 278 278 279 278 277 274 273 276 276 275 277 275 276 278 281 281 280
283 283 283 283 282 283 289 290 290 285 284 283 283 282 282 281 281 280 283 283 282 283 282 282 280 280 278 278 279 278 277 276 274 273 275 273 276 273 275 278 281 280 279
282 282 282 282 282 283 288 289 288 284 283 283 283 282 281 279 280 280 279 277 276 276 276 277 277 277 277 279 279 279 278 272 271 271 273 271 273 272 273 275 279 277 277
281 281 282 281 281 281 285 286 286 283 283 283 283 281 280 280 282 284 278 276 275 276 279 280 280 281 280 279 276 274 270 270 268 269 270 271 270 269 271 271 276 276 274
281 281 281 281 281 281 284 285 285 282 281 282 284 281 282 280 283 285 278 276 273 274 276 275 275 275 275 275 275 274 273 271 267 265 269 269 268 268 267 271 272 271 271
Wind_Speed
4 4 4 3 3 4 4 5 5 5 5 6 5 6 6 7 6 3 3 11 11 13 14 14 14 14 13 13 13 12 10 9 1 1 3 3 4 5 6 6 6 7 10
4 5 5 5 5 5 5 5 5 5 5 5 6 7 7 5 6 6 4 4 11 13 14 14 14 14 14 13 13 11 10 5 4 5 4 3 3 5 5 7 11 11 10
6 5 4 4 4 5 6 4 4 3 4 4 6 6 5 7 7 8 7 5 5 15 11 13 14 14 13 12 12 10 6 5 9 8 5 4 5 9 12 11 10 8 10
7 5 4 4 4 4 4 4 5 5 5 5 4 5 5 5 6 7 7 6 7 3 9 10 10 10 11 12 11 10 7 10 10 9 8 9 8 7 7 8 9 9 8
6 5 4 4 5 4 4 4 4 4 5 6 5 6 5 5 6 5 6 6 3 4 4 10 10 9 10 12 13 11 12 9 8 10 7 5 5 8 10 8 10 10 10
7 6 5 5 4 4 4 3 4 4 5 7 6 7 5 6 6 6 6 4 5 6 5 4 3 2 4 7 11 13 14 12 11 9 7 7 8 9 10 9 10 11 11
2 2 2 2 2 2 3 4 3 4 4 5 6 5 4 6 7 4 2 2 1 3 4 3 3 2 3 7 8 10 12 12 12 10 10 9 9 10 10 11 11 12 12
3 3 2 3 2 2 5 4 4 5 5 5 6 3 4 4 4 5 5 4 6 5 5 5 4 3 3 2 1 8 9 12 12 12 11 10 10 11 11 12 12 12 13
3 2 2 2 3 3 4 5 6 7 7 5 6 4 3 3 1 2 4 3 5 3 3 4 4 4 4 4 4 3 7 9 12 13 13 12 10 11 12 12 12 13 13
2 3 3 3 3 2 4 4 3 5 4 7 4 4 4 4 4 3 0 1 3 4 3 3 4 5 5 4 7 7 5 8 10 12 13 13 12 12 12 12 13 13 14
4 3 1 3 4 3 4 5 5 4 4 5 5 3 5 5 4 5 7 2 2 1 2 2 3 3 3 3 1 6 5 6 7 9 10 10 12 13 13 13 13 13 14
1 2 3 1 3 3 4 4 4 5 4 4 4 5 6 4 4 3 4 2 2 2 1 2 4 4 3 3 4 5 8 12 8 7 10 11 11 12 13 14 14 13 15
3 3 2 2 2 4 5 4 4 5 5 5 5 5 4 5 3 4 7 2 3 2 2 2 3 5 5 3 4 3 6 13 9 9 10 13 13 13 13 13 14 14 13
3 4 4 3 5 5 4 4 3 4 5 4 6 5 5 5 3 4 3 2 2 3 2 4 4 3 4 6 4 7 3 7 10 10 12 14 14 14 12 13 15 13 13
4 4 4 5 5 6 6 5 4 5 5 5 6 6 5 4 4 3 5 5 4 4 7 7 5 7 6 6 7 5 4 10 14 10 12 12 14 15 12 13 15 13 13
5 6 5 6 6 5 6 6 5 5 6 5 5 6 5 4 4 3 3 4 5 4 4 3 4 6 9 7 10 4 4 7 13 14 14 14 14 15 13 14 14 13 13
6 5 6 6 6 6 6 6 6 6 7 7 6 6 7 5 4 4 3 4 5 5 4 1 2 8 11 10 9 8 6 4 5 13 15 14 14 14 14 17 13 14 13
5 6 6 6 6 6 6 7 7 6 7 7 6 7 7 4 6 5 4 6 5 4 3 4 3 6 7 12 10 10 8 6 4 11 16 14 15 15 15 16 14 14 14
6 6 6 7 7 6 7 7 7 7 7 7 6 7 6 6 6 4 5 5 4 3 3 3 3 3 4 9 9 8 9 8 5 13 16 14 15 15 17 15 15 15 13
7 6 6 7 6 6 6 6 7 7 7 8 7 7 6 6 6 5 5 5 4 4 2 3 3 5 7 8 7 9 6 5 6 4 7 8 11 13 16 15 14 15 13
8 7 8 7 7 7 7 7 7 7 8 8 7 7 6 6 4 3 2 3 3 3 4 4 3 3 7 10 13 7 7 8 2 1 2 4 5 4 6 13 12 14 13
8 7 7 7 8 7 11 13 11 7 8 7 9 7 6 5 4 4 3 2 4 4 6 4 5 8 12 10 9 10 9 9 7 2 4 4 4 4 4 3 13 13 11
7 8 8 7 8 7 14 16 14 7 9 10 9 7 6 4 6 5 6 5 6 6 2 5 6 7 7 11 11 13 14 11 5 5 7 3 2 4 3 5 14 11 10
7 8 8 7 8 7 16 17 16 8 9 10 10 7 7 6 7 6 5 3 2 3 2 3 2 1 3 7 11 8 10 7 6 4 2 5 2 3 2 2 13 9 7
10 9 8 8 9 9 15 18 16 8 9 11 9 7 7 6 13 15 8 9 5 3 5 7 12 14 15 9 8 8 7 8 3 3 1 1 3 3 2 1 3 9 3
11 9 11 10 10 11 15 19 16 7 10 9 10 8 11 9 15 18 10 9 8 8 8 8 6 11 10 9 9 3 5 7 4 2 4 4 4 4 4 2 2 4 1
Wind_Direction
212 214 225 228 227 217 214 228 232 240 238 237 246 244 241 261 259 258 256 207 209 221 240 253 260 264 265 268 274 283 293 305 284 70 60 31 23 36 50 53 48 39 49
215 213 219 220 222 218 224 220 220 227 231 225 235 234 239 237 248 249 236 234 218 225 233 241 252 259 267 268 272 283 294 301 140 111 95 91 66 65 63 52 59 56 47
215 232 231 236 226 224 226 233 260 262 254 252 241 239 243 232 229 227 233 210 231 228 225 235 244 251 255 261 267 268 273 147 111 94 83 72 98 86 70 57 47 32 35
205 214 228 241 244 251 235 218 214 235 237 235 244 249 246 256 259 243 224 224 233 198 195 220 238 243 249 246 246 243 193 139 125 108 93 86 80 77 69 54 45 44 34
206 213 232 247 250 246 244 236 251 234 259 252 228 247 230 235 236 248 260 264 235 153 170 201 211 222 232 233 234 206 153 143 135 123 116 116 85 80 78 79 70 66 61
208 206 221 236 249 262 275 274 248 249 249 269 263 250 221 229 235 222 234 235 226 195 188 150 142 126 198 221 189 172 157 144 138 129 114 117 118 107 96 87 82 72 67
349 281 241 251 278 279 278 316 307 271 268 270 273 274 253 236 240 216 267 259 360 4 123 104 87 50 52 123 153 161 146 143 134 134 140 139 128 110 108 99 92 82 75
263 241 247 265 295 313 298 297 293 289 286 278 265 269 277 294 75 48 39 58 47 69 53 42 40 76 63 49 72 144 161 145 144 141 144 138 129 122 113 104 97 89 81
10 339 288 285 263 223 247 247 248 243 262 272 266 231 289 248 96 59 44 39 76 51 96 95 69 30 59 21 24 74 137 144 150 145 142 139 136 124 118 109 102 92 86
254 302 311 298 282 282 283 287 300 279 268 270 294 246 225 226 283 270 128 51 82 89 56 73 88 54 48 35 70 54 25 145 150 145 144 142 142 131 118 113 103 99 93
216 220 269 315 303 298 289 304 303 295 281 282 273 294 295 283 259 271 280 187 313 175 149 121 121 94 83 147 258 106 110 83 89 123 135 143 139 129 128 116 107 103 95
204 183 191 231 290 287 276 269 272 273 283 287 291 295 286 282 285 281 271 168 208 198 206 200 136 143 119 92 124 144 142 140 149 141 147 144 136 131 126 115 111 107 94
343 308 200 225 265 258 263 280 292 293 282 275 272 270 271 268 282 286 281 210 180 154 205 229 233 169 151 141 133 299 174 146 150 165 163 140 137 132 126 119 112 103 96
320 342 347 330 304 301 298 297 291 280 268 268 270 264 267 258 224 230 250 207 229 207 174 193 152 232 147 140 184 131 285 138 152 181 166 150 138 129 125 125 119 107 100
287 291 296 295 290 290 289 282 273 275 279 269 257 257 259 255 235 221 221 213 223 222 223 188 180 186 167 160 182 164 200 150 159 188 167 152 136 131 132 132 116 111 103
300 306 301 288 285 282 276 273 269 274 272 263 262 265 261 263 261 250 237 236 230 236 254 148 195 174 167 179 178 179 177 157 157 180 162 155 141 134 143 134 119 111 101
296 298 285 286 285 280 279 277 270 270 272 272 269 273 265 270 262 252 250 247 239 208 198 169 134 167 172 169 173 169 165 140 139 179 164 157 146 139 148 129 124 114 106
308 294 294 288 283 279 275 270 272 267 266 270 267 270 265 265 260 253 247 239 249 233 182 165 160 166 189 176 164 164 162 149 146 179 167 155 150 149 150 126 127 114 104
306 301 288 277 269 267 270 266 262 262 258 262 259 260 262 253 260 247 250 251 250 248 214 164 162 159 165 167 162 165 179 144 157 173 167 157 155 151 149 131 126 114 97
306 298 287 284 283 280 274 274 272 273 273 267 258 253 249 248 256 242 244 241 235 229 237 168 161 166 170 171 171 165 162 136 151 153 150 142 150 146 148 131 122 109 92
320 311 311 308 301 297 291 282 272 273 271 272 270 264 246 237 209 222 208 226 218 227 234 194 170 155 177 176 181 167 167 142 80 109 167 165 146 129 147 128 127 113 100
311 309 304 294 295 293 289 288 280 260 264 273 270 257 245 203 236 236 227 204 177 212 237 212 200 198 192 187 177 167 153 159 175 215 170 196 175 146 126 130 141 127 104
303 300 296 295 291 284 287 285 279 256 261 263 261 248 238 207 199 211 221 182 142 142 30 284 230 216 192 186 169 177 176 174 159 148 137 198 141 126 130 170 141 139 114
302 297 292 288 288 287 293 294 286 260 256 255 255 245 228 201 200 183 166 144 51 37 76 127 138 119 152 166 185 173 162 113 79 80 92 149 189 123 132 209 148 132 135
311 302 298 293 290 293 298 303 301 281 264 265 255 237 222 204 197 199 180 167 159 150 109 93 105 110 108 88 112 124 143 145 133 153 134 118 155 106 126 303 227 143 108
310 312 312 310 302 302 305 310 309 296 287 283 277 256 228 207 209 218 187 178 177 183 154 118 102 91 80 95 101 70 143 161 119 110 179 150 148 148 144 169 111 78 158